User: anonymous   Login
Location: Washington
(38.8950°N, 77.0370°W)
Time: 09:41:40
(UTC-04:00)
Language:

IDEFIX/ARIANE 42P - Orbit

View from above orbital plane
View from above orbital plane
View from above satellite
View from above satellite

Ground track
Ground track

The orbit data is extracted from the following two-line orbital elements,

1 27422U 02021B   17081.42091314 -.00000054 +00000-0 -52000-5 0  9996
2 27422 098.2300 086.4949 0013205 130.1640 230.0701 14.29251479776172
Epoch (UTC): 22 March 2017 10:06:06
Eccentricity: 0.0013205
inclination: 98.2300°
perigee height: 785 km
apogee height: 804 km
right ascension of ascending node: 86.4949°
argument of perigee: 130.1640°
revolutions per day: 14.29251479
mean anomaly at epoch: 230.0701°
orbit number at epoch: 77617

The dashed part of the orbit path shows where the satellite is in the earth's shadow,  

DLR